GW1031 Weather Reports


Display with metric or nautical units.
time (UTC)temp
F
wind
direction
speed
MPH
gust
MPH
rain 1hr
in
rain 24hr
in
rain mn
in
humidity
%
barometer
mb
20260506142401 47 97 1.0 1.0 0.00 0.00 0.00 71 1014.1
20260506141858 46 137 0.0 0.0 0.00 0.00 0.00 74 1014.2
20260506141356 46 143 0.0 0.0 0.00 0.00 0.00 72 1013.7
20260506140854 46 117 0.0 0.0 0.00 0.00 0.00 72 1014.0
20260506140351 44 107 0.0 0.0 0.00 0.00 0.00 77 1014.0
20260506135848 42 150 0.0 0.0 0.00 0.00 0.00 83 1014.1
20260506135345 42 132 0.0 0.0 0.00 0.00 0.00 85 1014.2
20260506134841 42 118 0.0 0.0 0.00 0.00 0.00 86 1014.3
20260506134337 41 70 0.0 0.0 0.00 0.00 0.00 89 1014.2
20260506133834 39 115 0.0 0.0 0.00 0.00 0.00 92 1014.2
20260506133331 39 105 0.0 0.0 0.00 0.00 0.00 94 1014.2
20260506132828 38 153 0.0 0.0 0.00 0.00 0.00 94 1014.1
20260506132325 38 141 0.0 0.0 0.00 0.00 0.00 94 1014.3
20260506131823 38 126 0.0 0.0 0.00 0.00 0.00 94 1014.1
20260506131319 38 126 0.0 0.0 0.00 0.00 0.00 94 1014.0
20260506130816 38 28 0.0 0.0 0.00 0.00 0.00 94 1014.0
20260506130312 38 142 0.0 0.0 0.00 0.00 0.00 94 1014.0
20260506125811 38 155 0.0 1.0 0.00 0.00 0.00 93 1013.6
20260506125308 38 198 0.0 0.0 0.00 0.00 0.00 93 1013.8
20260506124807 38 208 0.0 0.0 0.00 0.00 0.00 94 1013.7
20260506124304 37 191 0.0 0.0 0.00 0.00 0.00 95 1013.6
20260506123801 37 151 0.0 0.0 0.00 0.00 0.00 95 1013.5
20260506123300 37 151 0.0 0.0 0.00 0.00 0.00 95 1013.2
20260506122756 37 151 0.0 0.0 0.00 0.00 0.00 95 1013.4
20260506122253 37 151 0.0 0.0 0.00 0.00 0.00 95 1013.2
20260506121751 37 150 0.0 0.0 0.00 0.00 0.00 95 1013.5
20260506121248 37 144 0.0 0.0 0.00 0.00 0.00 95 1013.4
20260506120745 37 139 0.0 0.0 0.00 0.00 0.00 94 1013.1
20260506120243 37 124 0.0 0.0 0.00 0.00 0.00 94 1013.2
20260506115740 38 142 0.0 0.0 0.00 0.00 0.00 94 1013.4
20260506115238 38 110 0.0 0.0 0.00 0.00 0.00 94 1013.5
20260506114736 38 111 0.0 0.0 0.00 0.00 0.00 93 1013.4
20260506114233 38 148 0.0 0.0 0.00 0.00 0.00 93 1013.0
20260506113732 39 138 0.0 0.0 0.00 0.00 0.00 93 1013.4
20260506113229 38 139 0.0 0.0 0.00 0.00 0.00 93 1013.1
20260506112725 38 206 0.0 0.0 0.00 0.00 0.00 92 1012.9
20260506112223 38 211 0.0 0.0 0.00 0.00 0.00 94 1013.2
20260506111720 38 183 0.0 0.0 0.00 0.00 0.00 95 1013.1
20260506111218 38 196 0.0 0.0 0.00 0.00 0.00 94 1012.8
20260506110715 38 197 0.0 0.0 0.00 0.00 0.00 94 1012.9
20260506110213 38 125 0.0 0.0 0.00 0.00 0.00 95 1012.8
20260506105709 37 143 0.0 0.0 0.00 0.00 0.00 95 1013.1
20260506105206 37 126 0.0 0.0 0.00 0.00 0.00 94 1013.2
20260506104704 37 160 0.0 0.0 0.00 0.00 0.00 94 1012.8
20260506104201 37 174 0.0 0.0 0.00 0.00 0.00 95 1012.9
20260506103658 37 205 0.0 0.0 0.00 0.00 0.00 94 1013.1
20260506103155 37 193 0.0 0.0 0.00 0.00 0.00 94 1012.8
20260506102653 37 86 0.0 0.0 0.00 0.00 0.00 93 1012.6
20260506102150 37 186 0.0 0.0 0.00 0.00 0.00 93 1012.8
20260506101647 38 152 0.0 0.0 0.00 0.00 0.00 92 1013.0
20260506101144 38 132 0.0 0.0 0.00 0.00 0.00 91 1012.6
20260506100642 38 122 0.0 0.0 0.00 0.00 0.00 91 1012.8
20260506100140 39 121 0.0 0.0 0.00 0.00 0.00 91 1013.0
20260506095638 39 143 0.0 0.0 0.00 0.00 0.00 90 1012.9
20260506095135 39 142 0.0 0.0 0.00 0.00 0.00 90 1012.6
20260506094632 39 219 0.0 0.0 0.00 0.00 0.00 90 1012.8
20260506094130 38 226 0.0 0.0 0.00 0.00 0.00 90 1012.5
20260506093628 39 226 0.0 0.0 0.00 0.00 0.00 90 1012.9
20260506093125 39 220 0.0 0.0 0.00 0.00 0.00 90 1012.9
20260506092623 39 197 0.0 0.0 0.00 0.00 0.00 89 1012.4
20260506092119 39 192 0.0 0.0 0.00 0.00 0.00 90 1012.9
20260506091618 38 164 0.0 0.0 0.00 0.00 0.00 90 1012.6
20260506091115 38 152 0.0 0.0 0.00 0.00 0.00 91 1012.6
20260506090613 38 147 0.0 0.0 0.00 0.00 0.00 91 1012.6
20260506090109 38 147 0.0 0.0 0.00 0.00 0.00 90 1012.6
20260506085606 39 147 0.0 0.0 0.00 0.00 0.00 90 1013.0
20260506085102 39 122 0.0 0.0 0.00 0.00 0.00 90 1012.9
20260506084559 39 129 0.0 0.0 0.00 0.00 0.00 90 1013.1
20260506084055 39 218 0.0 0.0 0.00 0.00 0.00 89 1012.6
20260506083553 39 218 0.0 0.0 0.00 0.00 0.00 89 1012.6
20260506083050 39 219 0.0 0.0 0.00 0.00 0.00 88 1012.9
20260506082546 39 229 0.0 0.0 0.00 0.00 0.00 88 1012.8
20260506082042 40 146 0.0 0.0 0.00 0.00 0.00 87 1013.0
20260506081541 40 140 0.0 0.0 0.00 0.00 0.00 87 1013.0
20260506081038 40 140 0.0 0.0 0.00 0.00 0.00 88 1013.0
20260506080535 40 131 0.0 0.0 0.00 0.00 0.00 88 1013.0
20260506073519 41 125 0.0 0.0 0.00 0.00 0.00 86 1013.1
20260506073016 41 136 0.0 0.0 0.00 0.00 0.00 86 1013.0
20260506072513 41 125 0.0 0.0 0.00 0.00 0.00 86 1013.1
20260506072010 40 119 0.0 0.0 0.00 0.00 0.00 87 1013.2
20260506071508 40 203 0.0 0.0 0.00 0.00 0.00 84 1013.0
20260506071005 40 203 0.0 0.0 0.00 0.00 0.00 84 1013.4
20260506070503 41 203 0.0 0.0 0.00 0.00 0.00 83 1013.2
20260506062440 41 178 0.0 0.0 0.00 0.00 0.00 81 1013.4
20260506061936 42 178 0.0 0.0 0.00 0.00 0.00 80 1013.0
20260506061432 42 198 0.0 0.0 0.00 0.00 0.00 79 1013.2
20260506060930 42 133 0.0 0.0 0.00 0.00 0.00 78 1013.1
20260506060428 42 147 0.0 0.0 0.00 0.00 0.00 78 1013.1
20260506051400 47 139 1.0 1.0 0.00 0.00 0.00 64 1012.6
20260506050857 47 65 1.0 2.0 0.00 0.00 0.00 60 1012.4
20260506050355 47 208 0.0 0.0 0.00 0.00 0.00 62 1012.5
20260506044845 47 196 0.0 0.0 0.00 0.00 0.00 64 1012.3
20260506044343 47 186 0.0 0.0 0.00 0.00 0.00 65 1012.6
20260506043840 47 245 0.0 0.0 0.00 0.00 0.00 66 1012.5
20260506043337 46 272 1.0 1.0 0.00 0.00 0.00 69 1012.5
20260506042835 46 188 0.0 0.0 0.00 0.00 0.00 70 1012.4
20260506042334 46 188 0.0 0.0 0.00 0.00 0.00 70 1012.4
20260506041833 46 205 0.0 0.0 0.00 0.00 0.00 70 1012.4
20260506041329 46 176 0.0 0.0 0.00 0.00 0.00 71 1012.0
20260506040826 46 204 0.0 0.0 0.00 0.00 0.00 71 1012.1
20260506040324 46 207 0.0 0.0 0.00 0.00 0.00 71 1011.9
20260506035820 45 207 0.0 0.0 0.00 0.00 0.00 72 1011.9
20260506035317 45 180 0.0 0.0 0.00 0.00 0.00 72 1012.0
20260506034814 46 179 0.0 0.0 0.00 0.00 0.00 71 1011.7
20260506034311 46 204 0.0 0.0 0.00 0.00 0.00 70 1011.8
20260506033808 46 187 0.0 0.0 0.00 0.00 0.00 69 1011.5
20260506033305 46 237 0.0 0.0 0.00 0.00 0.00 70 1011.5
20260506032802 46 220 0.0 0.0 0.00 0.00 0.00 72 1011.7
20260506032259 46 189 0.0 0.0 0.00 0.00 0.00 72 1011.2
20260506031755 47 204 0.0 0.0 0.00 0.00 0.00 70 1011.4
20260506031253 48 132 0.0 0.0 0.00 0.00 0.00 69 1011.4
20260506030751 48 216 1.0 1.0 0.00 0.00 0.00 66 1011.4
20260506030249 49 121 0.0 0.0 0.00 0.00 0.00 66 1011.4
20260506025745 49 131 0.0 0.0 0.00 0.00 0.00 65 1011.2
20260506025241 50 176 0.0 1.0 0.00 0.00 0.00 62 1011.4
20260506024739 50 256 0.0 1.0 0.00 0.00 0.00 58 1011.2
20260506024235 50 211 3.0 3.0 0.00 0.00 0.00 56 1010.9
20260506023731 51 224 2.0 2.0 0.00 0.00 0.00 54 1010.6
20260506023229 51 183 0.0 1.0 0.00 0.00 0.00 52 1010.7
20260506022725 51 180 1.0 3.0 0.00 0.00 0.00 52 1010.3
20260506022223 51 180 0.0 1.0 0.00 0.00 0.00 54 1010.3
20260506021721 51 291 0.0 1.0 0.00 0.00 0.00 55 1010.2
20260506021218 51 299 1.0 2.0 0.00 0.00 0.00 54 1009.9
20260506020714 52 271 3.0 5.0 0.00 0.00 0.00 53 1009.9
20260506020213 52 210 2.0 3.0 0.00 0.00 0.00 52 1009.6
20260506015710 53 114 4.0 6.0 0.00 0.00 0.00 52 1009.6
20260506015207 53 225 1.0 2.0 0.00 0.00 0.00 49 1009.7
20260506014704 53 258 3.0 5.0 0.00 0.00 0.00 49 1009.6
20260506014200 54 230 2.0 5.0 0.00 0.00 0.00 48 1009.6
20260506013658 54 258 2.0 3.0 0.00 0.00 0.00 48 1009.2
20260506013155 54 263 1.0 2.0 0.00 0.00 0.00 49 1009.1
20260506012651 55 220 3.0 3.0 0.00 0.00 0.00 46 1009.0
20260506012148 55 288 1.0 1.0 0.00 0.00 0.00 45 1008.7
20260506011645 56 240 4.0 5.0 0.00 0.00 0.00 42 1008.6
20260506011141 57 265 3.0 3.0 0.00 0.00 0.00 39 1008.0
20260506010640 58 212 1.0 1.0 0.00 0.00 0.00 37 1008.0
20260506010137 59 239 0.0 1.0 0.00 0.00 0.00 33 1007.7
20260506005634 59 258 4.0 5.0 0.00 0.00 0.00 31 1007.7
20260506005130 59 218 1.0 1.0 0.00 0.00 0.00 30 1007.7
20260506004626 59 169 0.0 0.0 0.00 0.00 0.00 31 1007.6
20260506004124 59 159 0.0 1.0 0.00 0.00 0.00 29 1007.7
20260506003620 59 177 0.0 0.0 0.00 0.00 0.00 28 1007.4
20260506003116 59 67 1.0 2.0 0.00 0.00 0.00 29 1007.4
20260506002612 60 197 3.0 3.0 0.00 0.00 0.00 28 1007.4
20260506002109 60 226 0.0 1.0 0.00 0.00 0.00 27 1007.5
20260506001605 61 164 1.0 1.0 0.00 0.00 0.00 29 1007.1
20260506001102 62 233 1.0 2.0 0.00 0.00 0.00 28 1007.0
20260506000600 62 279 3.0 3.0 0.00 0.00 0.00 27 1006.9
20260506000057 63 193 1.0 1.0 0.00 0.00 0.00 24 1006.8
20260505235555 62 157 2.0 3.0 0.00 0.00 0.00 24 1006.7
20260505235052 62 183 3.0 6.0 0.00 0.00 0.00 23 1006.8
20260505234548 63 270 3.0 3.0 0.00 0.00 0.00 23 1006.8
20260505234045 62 233 3.0 5.0 0.00 0.00 0.00 24 1006.9
20260505233543 62 17 0.0 1.0 0.00 0.00 0.00 27 1006.8
20260505233040 62 218 0.0 0.0 0.00 0.00 0.00 29 1006.9
20260505232538 62 254 3.0 3.0 0.00 0.00 0.00 27 1006.7
20260505232035 62 236 1.0 2.0 0.00 0.00 0.00 27 1006.9
20260505231532 62 251 2.0 3.0 0.00 0.00 0.00 27 1006.9
20260505231031 63 259 1.0 2.0 0.00 0.00 0.00 27 1006.7
20260505230527 63 106 1.0 1.0 0.00 0.00 0.00 26 1006.8
20260505230024 64 269 2.0 3.0 0.00 0.00 0.00 25 1006.9
20260505225521 63 284 2.0 3.0 0.00 0.00 0.00 26 1006.9
20260505225017 63 228 0.0 0.0 0.00 0.00 0.00 35 1006.9
20260505224514 62 225 1.0 1.0 0.00 0.00 0.00 29 1007.1
20260505224011 62 248 1.0 1.0 0.00 0.00 0.00 28 1007.3
20260505223508 63 284 3.0 5.0 0.00 0.00 0.00 25 1007.3
20260505223004 64 94 2.0 2.0 0.00 0.00 0.00 25 1007.5
20260505222501 64 143 2.0 2.0 0.00 0.00 0.00 24 1007.3
20260505221956 65 147 0.0 1.0 0.00 0.00 0.00 25 1007.3
20260505221454 66 248 3.0 3.0 0.00 0.00 0.00 22 1007.4
20260505220951 65 308 3.0 5.0 0.00 0.00 0.00 24 1007.3
20260505220448 64 258 1.0 2.0 0.00 0.00 0.00 25 1007.6
20260505215945 64 276 3.0 5.0 0.00 0.00 0.00 28 1007.3
20260505215444 64 317 3.0 6.0 0.00 0.00 0.00 26 1007.6
20260505214941 66 254 2.0 3.0 0.00 0.00 0.00 25 1007.9
20260505214439 65 240 4.0 6.0 0.00 0.00 0.00 25 1007.6
20260505213936 68 286 2.0 2.0 0.00 0.00 0.00 23 1007.9
20260505213433 68 274 4.0 5.0 0.00 0.00 0.00 24 1008.0
20260505212929 68 296 1.0 1.0 0.00 0.00 0.00 24 1008.1
20260505212426 67 268 1.0 2.0 0.00 0.00 0.00 24 1008.1
20260505211922 68 232 3.0 5.0 0.00 0.00 0.00 24 1008.4
20260505211420 70 216 1.0 2.0 0.00 0.00 0.00 25 1008.7
20260505210916 70 88 2.0 3.0 0.00 0.00 0.00 24 1008.6
20260505210414 68 65 1.0 2.0 0.00 0.00 0.00 25 1008.2
20260505205911 67 125 3.0 5.0 0.00 0.00 0.00 24 1008.6
20260505205409 68 273 4.0 5.0 0.00 0.00 0.00 23 1008.8
20260505204905 68 287 2.0 3.0 0.00 0.00 0.00 23 1008.8
20260505204403 67 159 2.0 2.0 0.00 0.00 0.00 22 1008.8
20260505203900 66 23 1.0 1.0 0.00 0.00 0.00 25 1009.1
20260505203357 65 129 1.0 1.0 0.00 0.00 0.00 25 1009.0
20260505202853 64 173 0.0 0.0 0.00 0.00 0.00 25 1009.3
20260505202349 64 307 1.0 2.0 0.00 0.00 0.00 26 1009.2
20260505201846 64 103 1.0 1.0 0.00 0.00 0.00 29 1009.3
20260505201343 65 155 0.0 0.0 0.00 0.00 0.00 30 1009.6
20260505200842 69 291 1.0 2.0 0.00 0.00 0.00 24 1009.6
20260505200338 65 74 0.0 1.0 0.00 0.00 0.00 30 1009.3
20260505195834 65 265 2.0 3.0 0.00 0.00 0.00 25 1009.3
20260505195331 66 145 0.0 1.0 0.00 0.00 0.00 28 1009.3
20260505194828 65 201 0.0 0.0 0.00 0.00 0.00 29 1009.6
20260505194325 65 189 1.0 2.0 0.00 0.00 0.00 29 1009.3
20260505193820 66 355 1.0 1.0 0.00 0.00 0.00 26 1009.6
20260505193319 67 4 1.0 1.0 0.00 0.00 0.00 28 1009.6
20260505192816 66 226 1.0 1.0 0.00 0.00 0.00 28 1009.5
20260505192315 63 103 1.0 1.0 0.00 0.00 0.00 29 1009.8
20260505191812 61 101 0.0 1.0 0.00 0.00 0.00 35 1009.8
20260505191310 62 83 3.0 5.0 0.00 0.00 0.00 31 1009.9
20260505190806 62 191 1.0 1.0 0.00 0.00 0.00 29 1010.3
20260505190302 62 199 1.0 1.0 0.00 0.00 0.00 29 1010.2
20260505185758 62 248 2.0 2.0 0.00 0.00 0.00 29 1010.2
20260505185254 61 246 2.0 3.0 0.00 0.00 0.00 30 1010.2
20260505184750 62 215 3.0 3.0 0.00 0.00 0.00 29 1010.4
20260505184248 62 86 1.0 1.0 0.00 0.00 0.00 30 1010.1
20260505183744 62 192 2.0 2.0 0.00 0.00 0.00 29 1010.4
20260505183242 62 142 0.0 0.0 0.00 0.00 0.00 30 1010.2
20260505182738 63 167 3.0 5.0 0.00 0.00 0.00 28 1010.3
20260505182235 64 145 0.0 1.0 0.00 0.00 0.00 31 1010.4
20260505181731 64 108 1.0 1.0 0.00 0.00 0.00 30 1010.4
20260505181229 62 193 2.0 3.0 0.00 0.00 0.00 31 1010.7
20260505180726 62 236 1.0 2.0 0.00 0.00 0.00 31 1010.8
20260505180222 61 207 1.0 1.0 0.00 0.00 0.00 29 1010.6
20260505175718 61 128 1.0 2.0 0.00 0.00 0.00 29 1010.8
20260505175215 60 115 2.0 2.0 0.00 0.00 0.00 30 1010.7
20260505174712 59 173 1.0 1.0 0.00 0.00 0.00 30 1010.8
20260505174209 60 149 0.0 1.0 0.00 0.00 0.00 30 1011.0
20260505173705 60 148 0.0 0.0 0.00 0.00 0.00 30 1011.3
20260505173202 61 78 1.0 1.0 0.00 0.00 0.00 32 1011.0
20260505172659 60 78 0.0 0.0 0.00 0.00 0.00 33 1011.4
20260505172155 59 203 1.0 2.0 0.00 0.00 0.00 32 1011.2
20260505171655 59 162 1.0 2.0 0.00 0.00 0.00 31 1011.4
20260505171152 59 32 1.0 1.0 0.00 0.00 0.00 33 1011.4
20260505170650 59 247 1.0 1.0 0.00 0.00 0.00 34 1011.2
20260505170146 59 244 2.0 3.0 0.00 0.00 0.00 30 1011.2
20260505165641 59 235 0.0 1.0 0.00 0.00 0.00 31 1011.3
20260505165137 58 136 0.0 1.0 0.00 0.00 0.00 32 1011.2
20260505164632 57 30 0.0 1.0 0.00 0.00 0.00 37 1011.2
20260505164130 57 130 1.0 1.0 0.00 0.00 0.00 33 1011.3
20260505163628 57 228 0.0 1.0 0.00 0.00 0.00 33 1011.3
20260505163126 57 101 2.0 2.0 0.00 0.00 0.00 33 1011.3
20260505162623 58 187 1.0 2.0 0.00 0.00 0.00 33 1010.9
20260505162121 57 193 0.0 1.0 0.00 0.00 0.00 33 1011.0
20260505161618 56 238 0.0 1.0 0.00 0.00 0.00 36 1011.4
20260505161115 56 210 1.0 1.0 0.00 0.00 0.00 34 1011.3
20260505160613 56 151 1.0 1.0 0.00 0.00 0.00 34 1011.3
20260505160110 56 190 0.0 0.0 0.00 0.00 0.00 35 1011.0
20260505153049 57 124 0.0 0.0 0.00 0.00 0.00 39 1011.3
20260505152546 58 81 0.0 1.0 0.00 0.00 0.00 40 1011.3
20260505152042 58 136 0.0 1.0 0.00 0.00 0.00 38 1011.0
20260505151537 56 125 0.0 0.0 0.00 0.00 0.00 43 1011.4
20260505151035 54 26 1.0 2.0 0.00 0.00 0.00 42 1011.5
20260505150531 53 175 0.0 1.0 0.00 0.00 0.00 50 1011.5